EW7151 Weather Reports


time (UTC)temp
F
wind
direction
speed
knots
gust
knots
rain 1hr
in
rain 24hr
in
rain mn
in
humidity
%
barometer
mb
20260906113421 66 355 2.6 4.3 0.00 0.00 0.00 99 1019.9
20260906112917 66 15 2.6 2.6 0.00 0.00 0.00 99 1019.9
20260906112413 66 350 2.6 4.3 0.00 0.00 0.00 99 1019.6
20260906111908 66 346 3.5 3.5 0.00 0.00 0.00 99 1019.9
20260906111407 66 28 1.7 4.3 0.00 0.00 0.00 99 1019.6
20260906110903 66 0 1.7 4.3 0.00 0.00 0.00 99 1019.9
20260906110358 66 0 2.6 7.0 0.00 0.00 0.00 99 1019.6
20260906105857 66 356 1.7 4.3 0.00 0.00 0.00 99 1019.8
20260906105353 66 334 2.6 6.1 0.00 0.00 0.00 99 1019.9
20260906104848 66 0 3.5 6.1 0.00 0.00 0.00 99 1019.9
20260906104347 66 0 3.5 7.8 0.00 0.00 0.00 99 1019.8
20260906103845 66 346 5.2 7.0 0.00 0.00 0.00 99 1019.5
20260906103344 66 346 0.0 7.0 0.00 0.00 0.00 99 1019.8
20260906102840 66 12 2.6 4.3 0.00 0.00 0.00 99 1019.4
20260906102339 66 43 4.3 4.3 0.00 0.00 0.00 99 1019.1
20260906101834 66 14 4.3 4.3 0.00 0.00 0.00 99 1019.2
20260906101329 66 0 4.3 7.0 0.00 0.00 0.00 99 1019.3
20260906100825 66 340 0.9 3.5 0.00 0.00 0.00 99 1019.4
20260906100324 66 30 1.7 3.5 0.00 0.00 0.00 99 1019.3
20260906095819 66 24 1.7 4.3 0.00 0.00 0.00 99 1019.3
20260906095314 66 339 2.6 4.3 0.00 0.00 0.00 99 1019.3
20260906094814 65 357 4.3 4.3 0.00 0.00 0.00 99 1019.2
20260906094308 66 9 3.5 5.2 0.00 0.00 0.00 99 1019.4
20260906093800 65 350 2.6 4.3 0.00 0.00 0.00 99 1019.3
20260906093255 65 3 2.6 2.6 0.00 0.00 0.00 99 1019.4
20260906092749 65 0 1.7 4.3 0.00 0.00 0.00 99 1019.2
20260906092244 65 345 2.6 4.3 0.00 0.00 0.00 99 1019.1
20260906091740 65 350 2.6 4.3 0.00 0.00 0.00 99 1019.0
20260906091236 65 341 2.6 3.5 0.00 0.00 0.00 99 1019.2
20260906090732 65 350 4.3 4.3 0.00 0.00 0.00 99 1019.2
20260906090231 65 338 1.7 4.3 0.00 0.00 0.00 99 1019.1
20260906085730 65 350 1.7 4.3 0.00 0.00 0.00 99 1019.2
20260906085230 65 349 1.7 2.6 0.00 0.00 0.00 99 1019.2
20260906084724 65 325 0.0 1.7 0.00 0.00 0.00 99 1019.1
20260906084218 65 356 1.7 3.5 0.00 0.00 0.00 99 1019.3
20260906083714 66 344 1.7 3.5 0.00 0.00 0.00 99 1019.1
20260906083209 66 354 0.9 1.7 0.00 0.00 0.00 99 1019.1
20260906082704 66 18 1.7 2.6 0.00 0.00 0.00 99 1019.1
20260906082154 66 0 0.9 2.6 0.00 0.00 0.00 99 1019.1
20260906081649 66 14 0.0 2.6 0.00 0.00 0.00 99 1019.1
20260906081144 66 337 0.9 1.7 0.00 0.00 0.00 99 1019.1
20260906080641 66 11 1.7 2.6 0.00 0.00 0.00 99 1019.1
20260906080136 66 354 0.9 3.5 0.00 0.00 0.00 99 1019.2
20260906075630 66 21 1.7 1.7 0.00 0.00 0.00 99 1019.2
20260906075125 66 19 1.7 3.5 0.00 0.00 0.00 99 1019.2
20260906074620 66 346 2.6 2.6 0.00 0.00 0.00 99 1019.1
20260906074119 66 353 1.7 2.6 0.00 0.00 0.00 99 1019.0
20260906073614 67 331 1.7 2.6 0.00 0.00 0.00 99 1019.2
20260906073110 67 352 0.0 2.6 0.00 0.00 0.00 99 1019.3
20260906072604 67 0 0.9 2.6 0.00 0.00 0.00 99 1019.2
20260906072101 67 0 0.0 2.6 0.00 0.00 0.00 99 1019.2
20260906071557 67 0 2.6 4.3 0.00 0.00 0.00 99 1019.1
20260906071051 67 351 1.7 4.3 0.00 0.00 0.00 99 1019.2
20260906070548 67 0 0.0 3.5 0.00 0.00 0.00 98 1019.1
20260906070043 67 0 0.9 3.5 0.00 0.00 0.00 98 1019.2
20260906065542 68 48 1.7 2.6 0.00 0.00 0.00 98 1019.2
20260906065038 68 19 1.7 1.7 0.00 0.00 0.00 98 1019.4
20260906064534 68 26 1.7 3.5 0.00 0.00 0.00 98 1019.3
20260906064029 68 12 4.3 5.2 0.00 0.00 0.00 98 1019.4
20260906063524 68 346 1.7 3.5 0.00 0.00 0.00 97 1019.2
20260906063020 68 352 1.7 5.2 0.00 0.00 0.00 97 1019.4
20260906062515 68 2 3.5 4.3 0.00 0.00 0.00 97 1019.1
20260906062009 69 0 1.7 5.2 0.00 0.00 0.00 97 1019.3
20260906061505 69 347 3.5 6.1 0.00 0.00 0.00 96 1019.1
20260906060959 69 349 1.7 3.5 0.00 0.00 0.00 96 1019.3
20260906060456 69 0 3.5 4.3 0.00 0.00 0.00 96 1019.3
20260906055953 69 22 2.6 2.6 0.00 0.00 0.00 96 1019.1
20260906055448 69 0 2.6 4.3 0.00 0.00 0.00 96 1019.2
20260906054943 69 10 2.6 4.3 0.00 0.00 0.00 96 1019.5
20260906054438 69 15 2.6 3.5 0.00 0.00 0.00 95 1019.5
20260906053933 69 22 2.6 3.5 0.00 0.00 0.00 95 1019.4
20260906053430 69 352 1.7 5.2 0.00 0.00 0.00 95 1019.4
20260906052925 69 4 3.5 6.1 0.00 0.00 0.00 95 1019.3
20260906052421 69 347 2.6 3.5 0.00 0.00 0.00 96 1019.3
20260906051918 69 355 2.6 4.3 0.00 0.00 0.00 96 1019.2
20260906051418 69 41 3.5 5.2 0.00 0.00 0.00 96 1019.1
20260906050914 69 339 4.3 5.2 0.00 0.00 0.00 96 1019.1
20260906050408 69 357 1.7 4.3 0.00 0.00 0.00 96 1019.0
20260906045908 69 307 1.7 3.5 0.00 0.00 0.00 96 1019.1
20260906045406 69 0 1.7 2.6 0.00 0.00 0.00 96 1019.0
20260906044903 69 56 2.6 2.6 0.00 0.00 0.00 95 1018.9
20260906044403 69 355 2.6 2.6 0.00 0.00 0.00 95 1018.8
20260906043858 69 0 1.7 2.6 0.00 0.00 0.00 95 1018.9
20260906043354 69 16 2.6 4.3 0.00 0.00 0.00 95 1018.9
20260906042849 69 55 2.6 4.3 0.00 0.00 0.00 95 1018.8
20260906042348 69 331 2.6 3.5 0.00 0.00 0.00 95 1018.9
20260906041844 69 88 4.3 4.3 0.00 0.00 0.00 95 1018.8
20260906041340 69 358 3.5 4.3 0.00 0.00 0.00 95 1018.6
20260906040839 69 359 3.5 3.5 0.00 0.00 0.00 95 1018.6
20260906040335 69 63 2.6 6.1 0.00 0.00 0.00 95 1018.4
20260906035830 69 8 1.7 5.2 0.00 0.00 0.00 95 1018.5
20260906035325 69 46 4.3 6.1 0.00 0.00 0.00 94 1018.2
20260906034820 70 29 2.6 4.3 0.00 0.00 0.00 94 1018.4
20260906034315 69 46 5.2 5.2 0.00 0.00 0.00 95 1018.6
20260906033811 69 350 3.5 7.0 0.00 0.00 0.00 95 1018.2
20260906033310 69 331 0.9 5.2 0.00 0.00 0.00 95 1018.1
20260906032807 69 34 1.7 4.3 0.00 0.00 0.00 95 1018.2
20260906032305 69 19 2.6 7.0 0.00 0.00 0.00 95 1018.2
20260906031757 69 337 6.1 6.1 0.00 0.00 0.00 95 1018.0
20260906031253 69 9 3.5 5.2 0.00 0.00 0.00 95 1018.1
20260906030752 69 40 2.6 5.2 0.00 0.00 0.00 95 1017.9
20260906030248 69 75 2.6 2.6 0.00 0.00 0.00 94 1018.0
20260906025747 70 2 2.6 4.3 0.00 0.00 0.00 94 1018.1
20260906025241 70 90 2.6 4.3 0.00 0.00 0.00 94 1018.1
20260906024741 70 75 5.2 5.2 0.00 0.00 0.00 94 1017.9
20260906024240 70 26 3.5 5.2 0.00 0.00 0.00 94 1018.1
20260906023735 70 45 2.6 4.3 0.00 0.00 0.00 93 1017.9
20260906023231 70 35 0.9 5.2 0.00 0.00 0.00 93 1017.9
20260906022726 70 40 2.6 5.2 0.00 0.00 0.00 93 1017.8
20260906022221 71 97 4.3 7.0 0.00 0.00 0.00 92 1018.0
20260906021717 71 43 3.5 7.0 0.00 0.00 0.00 92 1018.0
20260906021215 71 13 6.1 6.1 0.00 0.00 0.00 92 1018.0
20260906020705 71 354 3.5 10.4 0.00 0.00 0.00 92 1017.7
20260906020200 71 15 1.7 4.3 0.00 0.00 0.00 92 1017.8
20260906015659 71 4 1.7 10.4 0.00 0.00 0.00 92 1017.9
20260906015153 71 23 3.5 8.7 0.00 0.00 0.00 92 1018.1
20260906014653 71 17 1.7 7.0 0.00 0.00 0.00 92 1018.3
20260906014149 71 63 2.6 4.3 0.00 0.00 0.00 92 1018.2
20260906013644 71 32 2.6 11.3 0.00 0.00 0.00 92 1018.0
20260906013140 71 351 7.8 9.6 0.00 0.00 0.00 92 1018.3
20260906012639 71 87 3.5 4.3 0.00 0.00 0.00 92 1018.1
20260906012134 71 13 4.3 7.0 0.00 0.00 0.00 91 1018.1
20260906011630 71 8 4.3 7.8 0.00 0.00 0.00 92 1018.0
20260906011125 71 341 5.2 6.1 0.00 0.00 0.00 92 1018.0
20260906010620 71 49 5.2 8.7 0.00 0.00 0.00 92 1017.9
20260906010116 71 23 6.1 6.1 0.00 0.00 0.00 92 1018.1
20260906005616 71 0 2.6 4.3 0.00 0.00 0.00 91 1017.9
20260906005115 72 351 7.0 9.6 0.00 0.00 0.00 91 1018.0
20260906004614 72 0 4.3 9.6 0.00 0.00 0.00 91 1017.8
20260906004109 71 76 7.8 8.7 0.00 0.00 0.00 91 1017.9
20260906003604 71 0 4.3 13.0 0.00 0.00 0.00 91 1017.8
20260906003100 71 14 2.6 4.3 0.00 0.00 0.00 91 1017.8
20260906002555 71 25 2.6 4.3 0.00 0.00 0.00 91 1017.9
20260906002050 71 25 2.6 6.1 0.00 0.00 0.00 91 1017.9
20260906001545 71 64 4.3 7.0 0.00 0.00 0.00 91 1017.6
20260906001044 71 100 5.2 17.4 0.00 0.00 0.00 91 1017.9
20260906000541 71 358 10.4 13.0 0.00 0.00 0.00 91 1017.8
20260906000036 72 347 7.0 12.2 0.00 0.00 0.00 91 1017.7
20260905235530 72 65 4.3 12.2 0.00 0.00 0.00 90 1017.5
20260905235025 73 102 4.3 14.8 0.00 0.00 0.00 90 1017.3
20260905234520 73 57 4.3 10.4 0.00 0.00 0.00 90 1017.4
20260905234015 74 81 9.6 13.0 0.00 0.00 0.00 89 1017.5
20260905233510 74 351 7.0 13.9 0.00 0.00 0.00 88 1017.1
20260905233009 75 351 5.2 10.4 0.00 0.00 0.00 88 1017.4
20260905232505 75 10 5.2 9.6 0.00 0.00 0.00 88 1017.2
20260905232001 76 60 3.5 10.4 0.00 0.00 0.00 87 1017.1
20260905231456 76 12 5.2 10.4 0.00 0.00 0.00 87 1017.2
20260905230952 76 347 5.2 7.0 0.00 0.00 0.00 86 1017.2
20260905230450 77 48 4.3 7.0 0.00 0.00 0.00 86 1017.0
20260905225949 77 18 6.1 14.8 0.00 0.00 0.00 86 1016.9
20260905225444 77 322 7.0 13.0 0.00 0.00 0.00 84 1016.8
20260905224939 78 2 5.2 12.2 0.00 0.00 0.00 85 1016.8
20260905224435 78 38 10.4 10.4 0.00 0.00 0.00 84 1016.7
20260905223933 79 61 3.5 7.8 0.00 0.00 0.00 83 1016.6
20260905223432 78 49 2.6 7.8 0.00 0.00 0.00 84 1016.7
20260905222927 78 17 7.0 15.6 0.00 0.00 0.00 85 1016.7
20260905222426 79 36 1.7 10.4 0.00 0.00 0.00 84 1016.8
20260905221922 79 23 4.3 6.1 0.00 0.00 0.00 84 1016.6
20260905221419 79 25 3.5 11.3 0.00 0.00 0.00 83 1016.7
20260905220915 80 10 5.2 11.3 0.00 0.00 0.00 82 1016.4
20260905220410 80 72 3.5 10.4 0.00 0.00 0.00 82 1016.4
20260905215909 79 30 3.5 7.8 0.00 0.00 0.00 82 1016.5
20260905215405 80 341 4.3 6.1 0.00 0.00 0.00 81 1016.4
20260905214901 80 2 8.7 8.7 0.00 0.00 0.00 80 1016.6
20260905214356 80 0 3.5 9.6 0.00 0.00 0.00 79 1016.6
20260905213851 81 49 4.3 10.4 0.00 0.00 0.00 77 1016.5
20260905213348 82 41 5.2 9.6 0.00 0.00 0.00 77 1016.3
20260905212848 82 71 6.1 7.8 0.00 0.00 0.00 77 1016.4
20260905212348 83 54 4.3 4.3 0.00 0.00 0.00 75 1016.3
20260905211842 83 25 2.6 5.2 0.00 0.00 0.00 74 1016.3
20260905211338 83 19 1.7 6.1 0.00 0.00 0.00 74 1016.3
20260905210834 81 355 2.6 6.1 0.00 0.00 0.00 77 1016.4
20260905210334 81 101 3.5 7.8 0.00 0.00 0.00 78 1016.5
20260905205832 81 24 3.5 10.4 0.00 0.00 0.00 78 1016.4
20260905205327 82 64 2.6 8.7 0.00 0.00 0.00 77 1016.4
20260905204827 81 7 3.5 5.2 0.00 0.00 0.00 78 1016.4
20260905204323 81 13 4.3 7.0 0.00 0.00 0.00 80 1016.5
20260905203821 81 42 4.3 8.7 0.00 0.00 0.00 80 1016.7
20260905203318 82 14 3.5 6.1 0.00 0.00 0.00 78 1016.9
20260905202813 80 41 5.2 6.1 0.00 0.00 0.00 80 1016.6
20260905202308 79 351 4.3 5.2 0.00 0.00 0.00 82 1016.5
20260905201803 79 8 4.3 9.6 0.00 0.00 0.00 82 1016.7
20260905201259 80 0 0.0 4.3 0.00 0.00 0.00 83 1016.7
20260905200753 80 25 4.3 7.0 0.00 0.00 0.00 82 1016.6
20260905200249 80 344 7.8 7.8 0.00 0.00 0.00 83 1016.7
20260905195747 80 10 0.0 3.5 0.00 0.00 0.00 82 1016.7
20260905195242 79 315 3.5 3.5 0.00 0.00 0.00 84 1016.6
20260905194738 79 354 2.6 5.2 0.00 0.00 0.00 84 1016.8
20260905194237 78 354 2.6 8.7 0.00 0.00 0.00 86 1016.9
20260905193736 79 5 1.7 2.6 0.00 0.00 0.00 85 1017.0
20260905193231 78 0 3.5 8.7 0.00 0.00 0.00 86 1016.9
20260905192727 78 135 2.6 7.0 0.00 0.00 0.00 86 1017.0
20260905192223 78 47 5.2 7.0 0.00 0.00 0.00 86 1017.1
20260905191722 78 348 1.7 4.3 0.00 0.00 0.00 86 1017.0
20260905191221 78 85 3.5 6.1 0.00 0.00 0.00 87 1017.2
20260905190720 78 7 1.7 4.3 0.00 0.00 0.00 87 1017.1
20260905190219 78 71 0.0 3.5 0.00 0.00 0.00 87 1017.2
20260905185718 77 20 2.6 5.2 0.00 0.00 0.00 88 1017.2
20260905185213 77 357 4.3 7.0 0.00 0.00 0.00 88 1017.3
20260905184707 76 7 4.3 7.8 0.00 0.00 0.00 89 1017.5
20260905184206 76 353 6.1 7.8 0.00 0.00 0.00 89 1017.3
20260905183700 76 0 3.5 9.6 0.00 0.00 0.00 90 1017.3
20260905183155 77 317 4.3 7.8 0.00 0.00 0.00 88 1017.2
20260905182655 76 30 2.6 8.7 0.00 0.00 0.00 89 1017.2
20260905182154 76 337 4.3 7.8 0.00 0.00 0.00 90 1017.3
20260905181650 76 31 5.2 8.7 0.00 0.00 0.00 91 1017.3
20260905181149 75 346 3.5 6.1 0.00 0.00 0.00 91 1017.4
20260905180643 76 116 3.5 7.0 0.00 0.00 0.00 91 1017.3
20260905180139 75 4 1.7 8.7 0.00 0.00 0.00 91 1017.2
20260905175638 76 90 4.3 5.2 0.00 0.00 0.00 91 1017.2
20260905175133 75 350 3.5 7.8 0.00 0.00 0.00 91 1017.1
20260905174629 76 8 1.7 5.2 0.00 0.00 0.00 91 1017.2
20260905174124 76 0 2.6 7.0 0.00 0.00 0.00 91 1017.2
20260905173621 76 346 2.6 6.1 0.00 0.00 0.00 91 1017.2
20260905173116 76 90 5.2 7.0 0.00 0.00 0.00 91 1017.2
20260905172615 76 18 3.5 7.8 0.00 0.00 0.00 91 1017.2
20260905172110 77 349 7.0 7.0 0.00 0.00 0.00 90 1017.1
20260905171606 77 85 3.5 7.0 0.00 0.00 0.00 90 1017.1
20260905171102 77 353 5.2 6.1 0.00 0.00 0.00 89 1017.2
20260905170558 78 354 6.1 7.8 0.00 0.00 0.00 88 1017.2
20260905170054 77 83 3.5 4.3 0.00 0.00 0.00 89 1017.1
20260905165548 78 11 4.3 5.2 0.00 0.00 0.00 89 1017.1
20260905165043 77 53 4.3 6.1 0.00 0.00 0.00 89 1017.3
20260905164538 77 60 4.3 10.4 0.00 0.00 0.00 89 1017.4
20260905164032 77 35 2.6 7.8 0.00 0.00 0.00 90 1017.2
20260905163528 77 45 7.0 10.4 0.00 0.00 0.00 89 1017.3
20260905163025 77 102 5.2 9.6 0.00 0.00 0.00 89 1017.4
20260905162520 78 103 6.1 8.7 0.00 0.00 0.00 89 1017.4
20260905162015 78 70 3.5 8.7 0.00 0.00 0.00 89 1017.2
20260905161515 78 37 6.1 9.6 0.00 0.00 0.00 88 1017.2
20260905161012 78 19 4.3 7.0 0.00 0.00 0.00 88 1017.3
20260905160505 78 85 1.7 5.2 0.00 0.00 0.00 90 1017.3
20260905160000 78 103 6.1 8.7 0.00 0.00 0.00 89 1017.4
20260905155455 78 14 0.9 7.0 0.00 0.00 0.00 89 1017.3
20260905154953 78 19 2.6 9.6 0.00 0.00 0.00 90 1017.2
20260905154449 77 48 5.2 8.7 0.00 0.00 0.00 90 1017.0
20260905153944 77 355 7.0 7.0 0.00 0.00 0.00 91 1017.0
20260905153440 77 124 1.7 7.8 0.00 0.00 0.00 91 1017.0
20260905152939 76 349 4.3 11.3 0.00 0.00 0.00 92 1016.8
20260905152440 77 64 4.3 7.8 0.00 0.00 0.00 90 1016.9
20260905151940 77 75 4.3 9.6 0.00 0.00 0.00 90 1016.9
20260905151435 77 108 2.6 12.2 0.00 0.00 0.00 90 1016.6
20260905150930 76 143 0.0 7.0 0.00 0.00 0.00 94 1016.7
20260905150430 75 346 7.0 7.0 0.00 0.00 0.00 94 1016.7
20260905145926 75 35 4.3 10.4 0.00 0.00 0.00 94 1016.6
20260905145421 75 72 7.8 7.8 0.00 0.00 0.00 94 1016.5
20260905144915 75 0 0.9 6.1 0.00 0.00 0.00 95 1016.5
20260905144411 75 18 1.7 5.2 0.00 0.00 0.00 95 1016.6
20260905143909 74 320 6.1 8.7 0.00 0.00 0.00 96 1016.5
20260905143403 74 337 5.2 7.8 0.00 0.00 0.00 96 1016.6
20260905142858 75 98 1.7 5.2 0.00 0.00 0.00 96 1016.4
20260905142356 74 34 1.7 7.0 0.00 0.00 0.00 96 1016.5
20260905141852 74 13 6.1 7.8 0.00 0.00 0.00 97 1016.6
20260905141347 74 12 2.6 6.1 0.00 0.00 0.00 97 1016.7
20260905140844 73 45 2.6 11.3 0.00 0.00 0.00 98 1016.4
20260905140344 73 348 5.2 10.4 0.00 0.00 0.00 98 1016.5
20260905135842 73 74 0.9 5.2 0.00 0.00 0.00 99 1016.4
20260905135338 73 5 2.6 7.8 0.00 0.00 0.00 99 1016.4
20260905134833 72 354 9.6 9.6 0.00 0.00 0.00 99 1016.5
20260905134326 72 68 1.7 3.5 0.00 0.00 0.00 99 1016.5
20260905133821 72 17 1.7 7.8 0.00 0.00 0.00 99 1016.5
20260905133316 72 5 4.3 4.3 0.00 0.00 0.00 99 1016.4
20260905132815 72 23 0.9 7.0 0.00 0.00 0.00 99 1016.4
20260905132311 71 70 1.7 4.3 0.00 0.00 0.00 99 1016.7
20260905131805 71 8 5.2 6.1 0.00 0.00 0.00 99 1016.7
20260905131301 71 37 4.3 6.1 0.00 0.00 0.00 99 1016.6
20260905130755 71 346 5.2 7.8 0.00 0.00 0.00 99 1016.8
20260905130254 71 348 3.5 5.2 0.00 0.00 0.00 99 1016.3
20260905125750 71 359 4.3 5.2 0.00 0.00 0.00 99 1016.0
20260905125244 71 33 3.5 4.3 0.00 0.00 0.00 99 1015.9
20260905124741 71 62 7.0 8.7 0.00 0.00 0.00 99 1015.8
20260905124237 71 355 4.3 10.4 0.00 0.00 0.00 99 1015.8
20260905123732 71 3 5.2 7.8 0.00 0.00 0.00 99 1015.8
20260905123229 72 32 2.6 5.2 0.00 0.00 0.00 99 1015.5
20260905122728 72 3 0.0 7.0 0.00 0.00 0.00 99 1015.6
20260905122223 72 0 0.9 6.1 0.00 0.00 0.00 99 1015.5
20260905121718 72 0 3.5 3.5 0.00 0.00 0.00 99 1015.4
20260905121214 72 0 0.0 2.6 0.00 0.00 0.00 99 1015.4
20260905120713 72 299 2.6 7.8 0.00 0.00 0.00 99 1015.6
20260905120207 72 352 2.6 4.3 0.00 0.00 0.00 99 1015.1
20260905115702 72 7 4.3 5.2 0.00 0.00 0.00 99 1015.0
20260905115157 72 8 0.0 2.6 0.00 0.00 0.00 99 1015.1
20260905114656 72 358 5.2 5.2 0.00 0.00 0.00 99 1015.2
20260905114154 72 357 2.6 3.5 0.00 0.00 0.00 99 1015.1